When you browse on this site, cookies collect data to enhance your experience and personalize the content and advertising you see.
Visit our Privacy Policy to learn more. By continuing to use the site, you agree to this use of cookies and data.
  • In United Kingdom
  • List of Countries
  • For 7 days
  • Water Temperature
  • Satellite Maps
  • Weather Map
  • Weather Widgets
  • user-avatar
    Login

    Hourly Weather Mongu

    Today, 26 March, Tuesday

    Time Temperature Precipitation Wind Pressure Humidity
    00:00 +25°C° 0 mm 1 mps 673 mmHg 55%
    01:00 +25°C° 0 mm 2 mps 673 mmHg 58%
    02:00 +26°C° 0 mm 2 mps 673 mmHg 56%
    03:00 +25°C° 0 mm 1 mps 673 mmHg 59%
    04:00 +25°C° 0 mm 1 mps 673 mmHg 63%
    05:00 +24°C° 0 mm 1 mps 673 mmHg 66%
    06:00 +25°C° 0 mm 2 mps 674 mmHg 67%
    07:00 +25°C° 0 mm 2 mps 674 mmHg 67%
    08:00 +26°C° 0 mm 2 mps 675 mmHg 67%
    09:00 +28°C° 0 mm 2 mps 675 mmHg 58%
    10:00 +31°C° 0 mm 2 mps 676 mmHg 48%
    11:00 +35°C° 0 mm 2 mps 676 mmHg 39%
    12:00 +35°C° 0 mm 2 mps 676 mmHg 36%
    13:00 +35°C° 0 mm 2 mps 675 mmHg 34%
    14:00 +35°C° 0 mm 2 mps 674 mmHg 31%
    15:00 +35°C° 0 mm 2 mps 674 mmHg 32%
    16:00 +35°C° 0 mm 2 mps 674 mmHg 33%
    17:00 +35°C° 0 mm 2 mps 674 mmHg 33%
    18:00 +32°C° 0 mm 2 mps 674 mmHg 37%
    19:00 +30°C° 0 mm 1 mps 674 mmHg 41%
    20:00 +29°C° 0 mm 1 mps 674 mmHg 44%
    21:00 +28°C° 0 mm 1 mps 674 mmHg 47%
    22:00 +27°C° 0 mm 1 mps 674 mmHg 50%
    23:00 +26°C° 0 mm 2 mps 674 mmHg 52%

    Tomorrow, 27 March, Wednesday

    Time Temperature Precipitation Wind Pressure Humidity
    00:00 +25°C° 0 mm 2 mps 674 mmHg 57%
    01:00 +24°C° 0 mm 1 mps 674 mmHg 61%
    02:00 +23°C° 0 mm 1 mps 674 mmHg 66%
    03:00 +23°C° 0 mm 1 mps 674 mmHg 70%
    04:00 +22°C° 0 mm 1 mps 674 mmHg 73%
    05:00 +22°C° 0 mm 1 mps 674 mmHg 77%
    06:00 +23°C° 0 mm 1 mps 674 mmHg 74%
    07:00 +24°C° 0 mm 1 mps 675 mmHg 72%
    08:00 +25°C° 0 mm 2 mps 676 mmHg 69%
    09:00 +28°C° 0 mm 3 mps 676 mmHg 58%
    10:00 +31°C° 0 mm 3 mps 677 mmHg 47%
    11:00 +35°C° 0 mm 4 mps 678 mmHg 36%
    12:00 +35°C° 0 mm 4 mps 677 mmHg 34%
    13:00 +36°C° 0 mm 4 mps 677 mmHg 31%
    14:00 +37°C° 0 mm 4 mps 676 mmHg 28%
    15:00 +36°C° 0 mm 3 mps 676 mmHg 30%
    16:00 +35°C° 0 mm 3 mps 675 mmHg 32%
    17:00 +34°C° 0 mm 2 mps 675 mmHg 35%
    18:00 +32°C° 0 mm 2 mps 675 mmHg 37%
    19:00 +31°C° 0 mm 1 mps 675 mmHg 40%
    20:00 +29°C° 0 mm 1 mps 675 mmHg 42%
    21:00 +28°C° 0 mm 1 mps 676 mmHg 45%
    22:00 +27°C° 0 mm 1 mps 676 mmHg 48%
    23:00 +27°C° 0 mm 1 mps 676 mmHg 50%

    Day after tomorrow, 28 March, Thursday

    Time Temperature Precipitation Wind Pressure Humidity
    00:00 +26°C° 0 mm 1 mps 676 mmHg 51%
    01:00 +26°C° 0 mm 1 mps 676 mmHg 53%
    02:00 +26°C° 0 mm 1 mps 676 mmHg 54%
    03:00 +25°C° 0 mm 1 mps 676 mmHg 57%
    04:00 +24°C° 0 mm 1 mps 675 mmHg 60%
    05:00 +23°C° 0 mm 1 mps 675 mmHg 63%
    06:00 +23°C° 0 mm 2 mps 676 mmHg 61%
    07:00 +24°C° 0 mm 2 mps 676 mmHg 60%
    08:00 +24°C° 0 mm 3 mps 677 mmHg 58%
    09:00 +27°C° 0 mm 3 mps 677 mmHg 52%
    10:00 +29°C° 0 mm 3 mps 678 mmHg 46%
    11:00 +33°C° 0 mm 3 mps 678 mmHg 39%
    12:00 +34°C° 0 mm 3 mps 678 mmHg 36%
    13:00 +35°C° 0 mm 3 mps 677 mmHg 33%
    14:00 +36°C° 0 mm 3 mps 676 mmHg 30%
    15:00 +35°C° 0 mm 3 mps 675 mmHg 31%
    16:00 +35°C° 0 mm 3 mps 675 mmHg 32%
    17:00 +34°C° 0 mm 2 mps 674 mmHg 33%
    18:00 +31°C° 0 mm 2 mps 674 mmHg 37%
    19:00 +30°C° 0 mm 1 mps 674 mmHg 41%
    20:00 +26°C° 0 mm 0 mps 674 mmHg 45%
    21:00 +28°C° 0 mm 1 mps 675 mmHg 47%
    22:00 +27°C° 0 mm 1 mps 675 mmHg 50%
    23:00 +27°C° 0 mm 1 mps 676 mmHg 52%

    29 March, Friday

    Time Temperature Precipitation Wind Pressure Humidity
    00:00 +26°C° 0 mm 2 mps 675 mmHg 57%
    01:00 +25°C° 0 mm 2 mps 674 mmHg 61%
    02:00 +24°C° 0 mm 2 mps 674 mmHg 65%
    03:00 +24°C° 0 mm 2 mps 674 mmHg 68%
    04:00 +23°C° 0 mm 1 mps 673 mmHg 70%
    05:00 +22°C° 0 mm 1 mps 673 mmHg 73%
    06:00 +23°C° 0 mm 1 mps 674 mmHg 70%
    07:00 +24°C° 0 mm 1 mps 675 mmHg 67%
    08:00 +25°C° 0 mm 1 mps 675 mmHg 65%
    09:00 +28°C° 0 mm 1 mps 676 mmHg 56%
    10:00 +30°C° 0 mm 2 mps 676 mmHg 47%
    11:00 +34°C° 0 mm 3 mps 677 mmHg 38%
    12:00 +35°C° 0 mm 3 mps 676 mmHg 34%
    13:00 +36°C° 0 mm 3 mps 675 mmHg 30%
    14:00 +37°C° 0 mm 3 mps 674 mmHg 25%
    15:00 +37°C° 0 mm 3 mps 674 mmHg 27%
    16:00 +36°C° 0 mm 3 mps 673 mmHg 28%
    17:00 +35°C° 0 mm 3 mps 673 mmHg 30%
    18:00 +32°C° 0 mm 2 mps 673 mmHg 34%
    19:00 +29°C° 0 mm 2 mps 673 mmHg 39%
    20:00 +27°C° 0 mm 1 mps 673 mmHg 44%
    21:00 +27°C° 0 mm 1 mps 673 mmHg 43%
    22:00 +27°C° 0 mm 1 mps 674 mmHg 43%
    23:00 +27°C° 0 mm 1 mps 674 mmHg 43%

    30 March, Saturday

    Time Temperature Precipitation Wind Pressure Humidity
    00:00 +26°C° 0 mm 1 mps 674 mmHg 45%
    01:00 +26°C° 0 mm 2 mps 673 mmHg 46%
    02:00 +26°C° 0 mm 2 mps 673 mmHg 48%
    03:00 +25°C° 0 mm 2 mps 673 mmHg 54%
    04:00 +23°C° 0 mm 1 mps 672 mmHg 60%
    05:00 +22°C° 0 mm 1 mps 672 mmHg 66%
    06:00 +23°C° 0 mm 1 mps 673 mmHg 64%
    07:00 +24°C° 0 mm 1 mps 674 mmHg 61%
    08:00 +25°C° 0 mm 1 mps 675 mmHg 59%
    09:00 +28°C° 0 mm 1 mps 675 mmHg 52%
    10:00 +30°C° 0 mm 2 mps 676 mmHg 44%
    11:00 +32°C° 0 mm 2 mps 676 mmHg 37%
    12:00 +35°C° 0 mm 2 mps 676 mmHg 33%
    13:00 +36°C° 0 mm 2 mps 675 mmHg 29%
    14:00 +37°C° 0 mm 3 mps 674 mmHg 24%
    15:00 +36°C° 0 mm 2 mps 674 mmHg 27%
    16:00 +35°C° 0 mm 2 mps 673 mmHg 29%
    17:00 +35°C° 0 mm 2 mps 673 mmHg 32%
    18:00 +31°C° 0 mm 2 mps 673 mmHg 37%
    19:00 +29°C° 0 mm 2 mps 673 mmHg 41%
    20:00 +27°C° 0 mm 1 mps 673 mmHg 46%
    21:00 +27°C° 0 mm 1 mps 673 mmHg 46%
    22:00 +27°C° 0 mm 1 mps 673 mmHg 46%
    23:00 +27°C° 0 mm 1 mps 674 mmHg 47%

    31 March, Sunday

    Time Temperature Precipitation Wind Pressure Humidity
    00:00 +26°C° 0 mm 1 mps 673 mmHg 49%
    01:00 +25°C° 0 mm 1 mps 673 mmHg 52%
    02:00 +24°C° 0 mm 2 mps 673 mmHg 54%
    03:00 +24°C° 0 mm 1 mps 673 mmHg 56%
    04:00 +23°C° 0 mm 1 mps 673 mmHg 59%
    05:00 +23°C° 0 mm 1 mps 673 mmHg 61%
    06:00 +24°C° 0 mm 1 mps 674 mmHg 60%
    07:00 +24°C° 0 mm 1 mps 674 mmHg 59%
    08:00 +25°C° 0 mm 1 mps 675 mmHg 58%
    09:00 +28°C° 0 mm 1 mps 675 mmHg 49%
    10:00 +31°C° 0 mm 1 mps 676 mmHg 41%
    11:00 +35°C° 0 mm 2 mps 676 mmHg 32%
    12:00 +36°C° 0 mm 2 mps 676 mmHg 29%
    13:00 +36°C° 0 mm 2 mps 675 mmHg 26%
    14:00 +37°C° 0 mm 2 mps 674 mmHg 23%
    15:00 +36°C° 0 mm 2 mps 674 mmHg 25%
    16:00 +35°C° 0 mm 2 mps 673 mmHg 28%
    17:00 +34°C° 0 mm 2 mps 673 mmHg 30%
    18:00 +31°C° 0 mm 2 mps 673 mmHg 34%
    19:00 +29°C° 0 mm 1 mps 673 mmHg 38%
    20:00 +27°C° 0 mm 1 mps 673 mmHg 41%
    21:00 +26°C° 0 mm 1 mps 673 mmHg 44%
    22:00 +26°C° 0 mm 1 mps 673 mmHg 46%
    23:00 +25°C° 0 mm 2 mps 674 mmHg 48%
    Show more